When you browse on this site, cookies collect data to enhance your experience and personalize the content and advertising you see.
Visit our Privacy Policy to learn more. By continuing to use the site, you agree to this use of cookies and data.
  • In United Kingdom
  • List of Countries
  • For 7 days
  • Water Temperature
  • Satellite Maps
  • Weather Map
  • Weather Widgets
  • user-avatar
    Login

    Hourly Weather Pechenizhyn

    Today, 17 June, Monday

    Time Temperature Precipitation Wind Pressure Humidity
    00:00 +23°C° 0 mm 2 mps 732 mmHg 79%
    01:00 +23°C° 0 mm 1 mps 732 mmHg 77%
    02:00 +23°C° 0 mm 1 mps 732 mmHg 75%
    03:00 +21°C° 0 mm 2 mps 732 mmHg 78%
    04:00 +20°C° 0 mm 3 mps 732 mmHg 85%
    05:00 +19°C° 0 mm 2 mps 732 mmHg 89%
    06:00 +20°C° 0 mm 3 mps 733 mmHg 93%
    07:00 +21°C° 0 mm 2 mps 733 mmHg 95%
    08:00 +22°C° 0 mm 3 mps 734 mmHg 96%
    09:00 +22°C° 0 mm 3 mps 734 mmHg 97%
    10:00 +22°C° 0 mm 3 mps 734 mmHg 97%
    11:00 +21°C° 0 mm 3 mps 734 mmHg 98%
    12:00 +21°C° 0 mm 3 mps 734 mmHg 98%
    13:00 +21°C° 0 mm 4 mps 734 mmHg 97%
    14:00 +22°C° 0 mm 3 mps 734 mmHg 95%
    15:00 +25°C° 0 mm 3 mps 734 mmHg 92%
    16:00 +25°C° 0 mm 3 mps 733 mmHg 90%
    17:00 +25°C° 0 mm 3 mps 733 mmHg 88%
    18:00 +25°C° 0 mm 3 mps 734 mmHg 88%
    19:00 +25°C° 0 mm 3 mps 734 mmHg 88%
    20:00 +24°C° 0 mm 1 mps 734 mmHg 95%
    21:00 +23°C° 0 mm 1 mps 734 mmHg 95%
    22:00 +23°C° 0 mm 2 mps 734 mmHg 96%
    23:00 +21°C° 0 mm 2 mps 734 mmHg 100%

    Tomorrow, 18 June, Tuesday

    Time Temperature Precipitation Wind Pressure Humidity
    00:00 +20°C° 0 mm 2 mps 734 mmHg 100%
    01:00 +20°C° 0 mm 2 mps 734 mmHg 100%
    02:00 +20°C° 0 mm 2 mps 734 mmHg 100%
    03:00 +19°C° 0 mm 2 mps 734 mmHg 100%
    04:00 +20°C° 0 mm 1 mps 734 mmHg 100%
    05:00 +20°C° 0 mm 1 mps 735 mmHg 100%
    06:00 +20°C° 0 mm 1 mps 735 mmHg 100%
    07:00 +20°C° 0 mm 1 mps 735 mmHg 100%
    08:00 +20°C° 0 mm 1 mps 735 mmHg 100%
    09:00 +21°C° 0 mm 1 mps 735 mmHg 98%
    10:00 +22°C° 0 mm 1 mps 736 mmHg 96%
    11:00 +23°C° 0 mm 1 mps 735 mmHg 93%
    12:00 +24°C° 0 mm 1 mps 735 mmHg 90%
    13:00 +24°C° 0 mm 2 mps 735 mmHg 89%
    14:00 +25°C° 0 mm 2 mps 735 mmHg 86%
    15:00 +25°C° 0 mm 3 mps 734 mmHg 85%
    16:00 +25°C° 0 mm 3 mps 734 mmHg 86%
    17:00 +25°C° 0 mm 3 mps 734 mmHg 87%
    18:00 +24°C° 0 mm 2 mps 734 mmHg 88%
    19:00 +24°C° 0 mm 2 mps 734 mmHg 88%
    20:00 +23°C° 0 mm 1 mps 734 mmHg 95%
    21:00 +23°C° 0 mm 1 mps 734 mmHg 96%
    22:00 +22°C° 0 mm 1 mps 734 mmHg 99%
    23:00 +22°C° 0 mm 1 mps 734 mmHg 100%

    Day after tomorrow, 19 June, Wednesday

    Time Temperature Precipitation Wind Pressure Humidity
    00:00 +21°C° 0 mm 1 mps 734 mmHg 100%
    01:00 +21°C° 0 mm 1 mps 733 mmHg 100%
    02:00 +21°C° 0 mm 1 mps 733 mmHg 100%
    03:00 +20°C° 0 mm 1 mps 733 mmHg 100%
    04:00 +20°C° 0 mm 1 mps 733 mmHg 100%
    05:00 +20°C° 0 mm 1 mps 733 mmHg 100%
    06:00 +20°C° 0 mm 1 mps 733 mmHg 100%
    07:00 +19°C° 0 mm 2 mps 733 mmHg 100%
    08:00 +21°C° 0 mm 3 mps 733 mmHg 97%
    09:00 +22°C° 0 mm 4 mps 733 mmHg 97%
    10:00 +23°C° 0 mm 4 mps 733 mmHg 98%
    11:00 +23°C° 0 mm 4 mps 733 mmHg 97%
    12:00 +25°C° 0 mm 4 mps 733 mmHg 97%
    13:00 +25°C° 0 mm 5 mps 732 mmHg 96%
    14:00 +26°C° 0 mm 5 mps 732 mmHg 95%
    15:00 +26°C° 0 mm 5 mps 732 mmHg 90%
    16:00 +27°C° 0 mm 5 mps 731 mmHg 87%
    17:00 +26°C° 0 mm 5 mps 731 mmHg 92%
    18:00 +26°C° 0 mm 4 mps 732 mmHg 95%
    19:00 +25°C° 0 mm 4 mps 731 mmHg 97%
    20:00 +25°C° 0 mm 4 mps 731 mmHg 94%
    21:00 +23°C° 0 mm 4 mps 731 mmHg 97%
    22:00 +22°C° 0 mm 4 mps 731 mmHg 98%
    23:00 +22°C° 0 mm 4 mps 731 mmHg 99%

    20 June, Thursday

    Time Temperature Precipitation Wind Pressure Humidity
    00:00 +21°C° 0 mm 3 mps 731 mmHg 100%
    01:00 +20°C° 0 mm 2 mps 730 mmHg 100%
    02:00 +21°C° 0 mm 1 mps 731 mmHg 100%
    03:00 +21°C° 0 mm 1 mps 730 mmHg 100%
    04:00 +21°C° 0 mm 1 mps 731 mmHg 100%
    05:00 +20°C° 0 mm 1 mps 731 mmHg 100%
    06:00 +18°C° 0 mm 0 mps 731 mmHg 100%
    07:00 +19°C° 0 mm 0 mps 731 mmHg 100%
    08:00 +21°C° 0 mm 1 mps 732 mmHg 100%
    09:00 +23°C° 0 mm 1 mps 732 mmHg 97%
    10:00 +25°C° 0 mm 1 mps 732 mmHg 96%
    11:00 +26°C° 0 mm 2 mps 732 mmHg 90%
    12:00 +27°C° 0 mm 2 mps 732 mmHg 86%
    13:00 +28°C° 0 mm 3 mps 732 mmHg 87%
    14:00 +28°C° 0 mm 4 mps 731 mmHg 87%

    21 June, Friday

    Time Temperature Precipitation Wind Pressure Humidity

    22 June, Saturday

    Time Temperature Precipitation Wind Pressure Humidity
    Show more